[[{"header":{"parameterUnit":"m.s-1","parameterCategory":2,"la1":30.2992,"la2":30.254,"lo1":-89.0895,"lo2":-89.0443,"dy":0.0025,"dx":0.0025,"nx":19,"ny":19,"refTime":"2026-05-06T09:00:00:Z","depth":"0","parameterNumber":2,"parameterNumberName":"U-component_of_CURRENTS"},"data":[0,0,0,-0.1053,-0.1056,-0.1227,-0.1227,-0.1404,-0.1405,0,0,0,0,0,0,0,0,0,0,0,-0.0973,-0.0973,-0.1052,-0.1056,-0.1226,-0.1227,-0.1404,-0.1405,0,0,0,0,0,0,0,0,0,0,0,-0.0973,-0.0973,-0.0974,-0.1057,-0.1226,-0.1227,-0.1403,-0.1287,0,0,0,0,0,0,0,0,0,0,-0.1128,-0.1046,-0.0973,-0.0974,-0.1058,-0.1226,-0.1228,-0.1282,-0.1295,-0.1311,0,-0.1318,0,-0.137,-0.1415,-0.1415,0,0,0,-0.1067,-0.1036,-0.1094,-0.0974,-0.1059,-0.1226,-0.1153,-0.129,-0.1303,-0.1327,-0.1321,-0.1329,-0.1373,-0.1416,-0.1417,-0.1574,-0.1575,0,0,-0.1057,-0.1,-0.1084,-0.1101,-0.1078,-0.1147,-0.1158,-0.1299,-0.1294,-0.1322,-0.1334,-0.1376,-0.1417,-0.1418,-0.1574,-0.1574,0,0,0,-0.1023,-0.0992,-0.1048,-0.1093,-0.113,-0.1152,-0.1164,-0.1287,-0.1308,-0.1336,-0.1378,-0.1418,-0.142,-0.1573,-0.1574,-0.1486,0,0,0,-0.1018,-0.0973,-0.1043,-0.101,-0.1127,-0.1215,-0.1149,-0.1298,-0.1317,-0.1377,-0.1418,-0.1421,-0.1572,-0.1573,-0.1487,-0.1265,0,0,0,-0.0969,-0.0968,-0.0983,-0.1007,-0.108,-0.1214,-0.1244,-0.1304,-0.1342,-0.1416,-0.1421,-0.1572,-0.1573,-0.1488,-0.1274,-0.1015,0,0,0,-0.0914,-0.0925,-0.098,-0.1016,-0.1078,-0.1209,-0.1244,-0.1348,-0.1413,-0.1419,-0.1572,-0.1574,-0.1488,-0.1279,-0.1023,-0.0844,-0.079,0,0,-0.0903,-0.0921,-0.095,-0.1005,-0.1099,-0.1188,-0.1281,-0.1376,-0.1439,-0.1523,-0.1528,-0.1487,-0.1274,-0.1016,-0.093,-0.0871,0,0,0,-0.0934,-0.0938,-0.0984,-0.1045,-0.1159,-0.1198,-0.135,-0.1396,-0.1478,-0.1483,-0.1542,-0.1407,-0.1247,-0.1162,-0.1119,-0.1044,-0.1581,-0.158,-0.158,-0.0829,-0.0909,-0.094,-0.104,-0.1105,-0.1239,-0.1245,-0.1328,-0.1485,-0.1513,-0.1386,-0.1174,-0.11,-0.1061,-0.0994,-0.1541,-0.154,-0.154,-0.154,-0.0787,-0.0793,-0.0861,-0.0912,-0.0977,-0.1049,-0.1133,-0.1211,-0.1138,-0.1353,-0.1207,-0.1137,-0.1005,-0.0952,-0.1535,-0.1536,-0.1537,-0.1537,-0.1537,-0.0703,-0.0707,-0.0745,-0.0779,-0.0781,-0.0892,-0.0786,-0.087,-0.0915,-0.0804,-0.0643,-0.0644,-0.0529,-0.0755,-0.0752,-0.075,-0.0749,-0.0747,-0.0746,-0.0589,-0.0626,-0.0605,-0.0641,-0.0632,-0.0603,-0.0567,-0.0476,-0.0335,-0.0374,-0.0375,-0.0445,-0.0929,-0.0882,-0.0715,-0.072,-0.0724,-0.0727,-0.0729,-0.0488,-0.0502,-0.0464,-0.045,-0.042,-0.0331,-0.0291,-0.0003,0.0163,0.0315,0.021,-0.0139,-0.0071,-0.0112,-0.0045,0.0332,0.0332,0.0332,0.0332,-0.0392,-0.0408,-0.0328,-0.0275,-0.0209,-0.0192,0.008,0.0277,0.0551,0.0701,0.0684,0.0438,0.0391,0.0469,0.0416,0.0484,0.0988,0.0988,0.0989,-0.031,-0.0301,-0.0213,-0.0187,-0.012,-0.0033,0.0199,0.0459,0.0867,0.1013,0.0769,0.0742,0.0354,0.0276,0.0351,0.0272,0.0364,0,0]},{"header":{"parameterUnit":"m.s-1","parameterCategory":2,"la1":30.2992,"la2":30.254,"lo1":-89.0895,"lo2":-89.0443,"dy":0.0025,"dx":0.0025,"nx":19,"ny":19,"refTime":"2026-05-06T09:00:00:Z","depth":"0","parameterNumber":3,"parameterNumberName":"V-component_of_CURRENTS"},"data":[0,0,0,-0.0011,-0.0011,0.0021,0.0022,0.0127,0.0128,0,0,0,0,0,0,0,0,0,0,0,-0.0017,-0.0017,-0.0011,-0.0011,0.0021,0.0022,0.0127,0.0128,0,0,0,0,0,0,0,0,0,0,0,-0.0017,-0.0017,-0.0017,-0.0011,0.0021,0.0022,0.0126,0.009,0,0,0,0,0,0,0,0,0,0,0.0052,0.0031,-0.0017,-0.0017,-0.0011,0.0021,0.0022,0.0088,0.0092,0.0125,0,0.0121,0,0.0119,0.0135,0.0135,0,0,0,0.0005,0.0027,0.0033,-0.0017,-0.0011,0.0021,0.0011,0.009,0.0095,0.0131,0.0122,0.0126,0.012,0.0135,0.0136,0.0089,0.0088,0,0,0.0004,-0.0003,0.0029,0.0035,-0.0012,0.001,0.0012,0.0093,0.0098,0.0123,0.0128,0.0122,0.0136,0.0137,0.009,0.0089,0,0,0,-0.0013,-0.0004,-0.0002,0.0032,0.0028,0.0011,0.0013,0.0094,0.0094,0.0129,0.0123,0.0137,0.0138,0.0092,0.009,-0.0012,0,0,0,-0.0013,-0.0015,-0.0003,-0.0005,0.0025,0.0052,0.0013,0.0088,0.0097,0.0123,0.0137,0.0139,0.0093,0.0091,-0.0006,0.0068,0,0,0,-0.0017,-0.0015,-0.0016,-0.0006,-0.0,0.005,0.0055,0.009,0.0093,0.0135,0.0139,0.0094,0.0091,-0.0001,0.0073,0.0199,0,0,0,-0.0018,-0.0055,-0.0016,-0.0073,-0.0001,-0.0069,0.0054,0.004,0.006,0.0137,0.0093,0.009,0.0001,0.0076,0.0199,0.032,0.0329,0,0,-0.0075,-0.0061,-0.0104,-0.007,-0.015,-0.0071,-0.0144,-0.0042,0.0027,0.0078,0.0077,-0.0008,0.0073,0.0199,0.0142,0.0158,0,0,0,-0.0131,-0.0149,-0.0176,-0.0205,-0.0233,-0.0202,-0.0161,-0.0128,-0.0074,0.0024,-0.0042,0.0015,0.0098,0.0167,0.0177,0.0265,0.0076,0.0076,0.0076,-0.0181,-0.0212,-0.0269,-0.0298,-0.0324,-0.0307,-0.0268,-0.0205,-0.0191,-0.0192,-0.0101,-0.0103,-0.0044,-0.0031,0.0051,-0.0198,-0.0199,-0.0199,-0.0199,-0.0253,-0.0279,-0.0295,-0.0355,-0.034,-0.0373,-0.0321,-0.0291,-0.0193,-0.0222,-0.0139,0.0015,-0.0024,0.0059,-0.0206,-0.0205,-0.0204,-0.0203,-0.0203,-0.0271,-0.028,-0.0312,-0.0354,-0.0344,-0.0345,-0.0232,-0.0221,-0.0181,-0.0136,0.0052,0.0055,0.0177,-0.0093,-0.0092,-0.0091,-0.0091,-0.009,-0.0089,-0.0258,-0.0289,-0.0308,-0.0333,-0.0322,-0.0249,-0.0158,-0.0072,0.0035,0.0055,0.0056,0.0179,-0.0065,-0.0014,-0.0078,-0.008,-0.0081,-0.0082,-0.0083,-0.0277,-0.0274,-0.0296,-0.0294,-0.0236,-0.01,-0.0027,0.0182,0.0282,0.0369,0.0402,0.0185,0.0292,0.0283,0.0344,0.0379,0.0379,0.0379,0.038,-0.0262,-0.0272,-0.0264,-0.0235,-0.0145,-0.0025,0.0225,0.0407,0.0573,0.067,0.0635,0.0559,0.0536,0.0654,0.0636,0.0702,0.0828,0.0828,0.0829,-0.0255,-0.0252,-0.0228,-0.0206,-0.011,0.0084,0.0336,0.0614,0.0845,0.085,0.0732,0.0714,0.0594,0.0553,0.0724,0.0693,0.0798,0,0]}],[{"header":{"parameterUnit":"m.s-1","parameterCategory":2,"la1":30.2992,"la2":30.254,"lo1":-89.0895,"lo2":-89.0443,"dy":0.0025,"dx":0.0025,"nx":19,"ny":19,"refTime":"2026-05-06T09:00:00:Z","depth":"2","parameterNumber":2,"parameterNumberName":"U-component_of_CURRENTS"},"data":[0,0,0,-0.1336,-0.1338,-0.1464,-0.1464,-0.16,-0.1601,0,0,0,0,0,0,0,0,0,0,0,-0.1277,-0.1277,-0.1336,-0.1339,-0.1463,-0.1464,-0.1599,-0.1601,0,0,0,0,0,0,0,0,0,0,0,-0.1277,-0.1277,-0.1278,-0.1339,-0.1463,-0.1464,-0.1599,-0.1512,0,0,0,0,0,0,0,0,0,0,-0.1394,-0.1334,-0.1277,-0.1278,-0.134,-0.1463,-0.1464,-0.1508,-0.1517,-0.1534,0,-0.1541,0,-0.1579,-0.1609,-0.1609,0,0,0,-0.1344,-0.1326,-0.1369,-0.1278,-0.1341,-0.1463,-0.1409,-0.1514,-0.1524,-0.1546,-0.1543,-0.1549,-0.1581,-0.1609,-0.161,-0.1744,-0.1745,0,0,-0.1337,-0.1295,-0.1362,-0.1375,-0.1357,-0.1404,-0.1412,-0.152,-0.1518,-0.1544,-0.1553,-0.1583,-0.161,-0.1611,-0.1744,-0.1744,0,0,0,-0.1313,-0.129,-0.1331,-0.1369,-0.1396,-0.1408,-0.1417,-0.1513,-0.1529,-0.1555,-0.1585,-0.1611,-0.1612,-0.1743,-0.1744,-0.1667,0,0,0,-0.131,-0.1277,-0.1328,-0.1304,-0.1394,-0.1458,-0.1407,-0.1521,-0.1535,-0.1584,-0.1611,-0.1614,-0.1742,-0.1743,-0.1667,-0.1473,0,0,0,-0.1274,-0.1274,-0.1285,-0.1302,-0.1357,-0.1458,-0.148,-0.1525,-0.1553,-0.1609,-0.1614,-0.1742,-0.1743,-0.1668,-0.148,-0.1283,0,0,0,-0.1233,-0.125,-0.1283,-0.1317,-0.1356,-0.1458,-0.148,-0.1555,-0.1603,-0.1612,-0.1742,-0.1744,-0.1668,-0.1484,-0.129,-0.1108,-0.1062,0,0,-0.1238,-0.1249,-0.1274,-0.1309,-0.1384,-0.1442,-0.1518,-0.1582,-0.1629,-0.1704,-0.1708,-0.1667,-0.148,-0.1284,-0.1187,-0.1136,0,0,0,-0.1267,-0.1272,-0.1307,-0.1353,-0.1438,-0.1453,-0.1571,-0.1605,-0.1664,-0.1664,-0.1717,-0.1598,-0.1477,-0.1387,-0.1349,-0.175,-0.175,-0.175,-0.175,-0.1193,-0.1255,-0.1275,-0.1349,-0.1399,-0.149,-0.1484,-0.1546,-0.1678,-0.1695,-0.1581,-0.1417,-0.1335,-0.13,-0.1717,-0.1717,-0.1717,-0.1717,-0.1716,-0.1164,-0.1151,-0.1205,-0.1242,-0.1276,-0.1327,-0.1388,-0.1445,-0.1386,-0.1558,-0.1449,-0.1365,-0.1251,-0.1711,-0.1712,-0.1713,-0.1713,-0.1714,-0.1714,-0.1079,-0.1071,-0.11,-0.1115,-0.1086,-0.1168,-0.1065,-0.1133,-0.1189,-0.1098,-0.0959,-0.0959,-0.1215,-0.1071,-0.1069,-0.1067,-0.1066,-0.1065,-0.1064,-0.0956,-0.0984,-0.095,-0.097,-0.0931,-0.0894,-0.0846,-0.0786,-0.0685,-0.0723,-0.0724,-0.1194,-0.1215,-0.1174,-0.1038,-0.1043,-0.1046,-0.1048,-0.105,-0.0845,-0.086,-0.0808,-0.0771,-0.0692,-0.0615,-0.0584,-0.0375,-0.0246,-0.0142,-0.0505,-0.0527,-0.0471,-0.0505,-0.0448,-0.0128,-0.0128,-0.0128,-0.0128,-0.075,-0.0763,-0.0656,-0.056,-0.0473,-0.0466,-0.026,-0.0184,-0.0108,-0.0111,-0.0114,-0.0338,-0.0372,-0.0327,-0.0365,-0.0312,0.0043,0.0042,0.0041,-0.0673,-0.0661,-0.0546,-0.0477,-0.0365,-0.0326,-0.0172,0.0001,0.0082,0.0028,-0.0296,-0.0076,-0.0423,-0.047,-0.0426,-0.0478,-0.0402,0,0]},{"header":{"parameterUnit":"m.s-1","parameterCategory":2,"la1":30.2992,"la2":30.254,"lo1":-89.0895,"lo2":-89.0443,"dy":0.0025,"dx":0.0025,"nx":19,"ny":19,"refTime":"2026-05-06T09:00:00:Z","depth":"2","parameterNumber":3,"parameterNumberName":"V-component_of_CURRENTS"},"data":[0,0,0,-0.0065,-0.0065,-0.0015,-0.0015,0.01,0.0101,0,0,0,0,0,0,0,0,0,0,0,-0.0078,-0.0078,-0.0065,-0.0065,-0.0015,-0.0015,0.0099,0.0101,0,0,0,0,0,0,0,0,0,0,0,-0.0078,-0.0078,-0.0078,-0.0065,-0.0016,-0.0015,0.0099,0.0053,0,0,0,0,0,0,0,0,0,0,0.0001,-0.0028,-0.0078,-0.0078,-0.0064,-0.0016,-0.0015,0.0051,0.0056,0.0087,0,0.0086,0,0.0088,0.0108,0.0108,0,0,0,-0.0048,-0.0033,-0.002,-0.0078,-0.0064,-0.0016,-0.0033,0.0053,0.006,0.0094,0.0087,0.0091,0.009,0.0109,0.0109,0.0077,0.0076,0,0,-0.0051,-0.0064,-0.0024,-0.0016,-0.0062,-0.0035,-0.0032,0.0057,0.006,0.0087,0.0093,0.0092,0.0109,0.011,0.0078,0.0077,0,0,0,-0.007,-0.0066,-0.0055,-0.0021,-0.002,-0.0034,-0.003,0.0057,0.0059,0.0094,0.0093,0.011,0.0111,0.008,0.0078,-0.0043,0,0,0,-0.0071,-0.0078,-0.0057,-0.0063,-0.0023,0.001,-0.0032,0.0054,0.0063,0.0092,0.011,0.0112,0.0081,0.0079,-0.0037,0.0004,0,0,0,-0.0078,-0.0079,-0.0076,-0.0064,-0.0051,0.0009,0.0017,0.0056,0.0062,0.0108,0.0113,0.0082,0.0079,-0.0031,0.001,0.0076,0,0,0,-0.0087,-0.0124,-0.0077,-0.0131,-0.0052,-0.0105,0.0017,0.0008,0.0033,0.011,0.0081,0.0078,-0.003,0.0014,0.0078,0.018,0.0179,0,0,-0.0149,-0.0132,-0.0171,-0.0129,-0.0201,-0.011,-0.0177,-0.0074,0.0004,0.0062,0.0061,-0.0039,0.001,0.0076,0.0019,0.0024,0,0,0,-0.0202,-0.022,-0.0242,-0.0264,-0.0278,-0.025,-0.0193,-0.0155,-0.0097,0.0005,-0.0062,-0.0025,0.0021,0.0083,0.0086,0.0065,0.0065,0.0065,0.0066,-0.0269,-0.0289,-0.0346,-0.0363,-0.0384,-0.0357,-0.0325,-0.0253,-0.0214,-0.0215,-0.0146,-0.0196,-0.014,-0.0134,-0.0218,-0.0219,-0.0219,-0.0219,-0.022,-0.0352,-0.0377,-0.0388,-0.0444,-0.0426,-0.0454,-0.0401,-0.0363,-0.0286,-0.0273,-0.0226,-0.0075,-0.0137,-0.023,-0.0228,-0.0227,-0.0225,-0.0225,-0.0224,-0.038,-0.0389,-0.0417,-0.0462,-0.0457,-0.045,-0.0372,-0.0357,-0.0314,-0.0295,-0.0135,-0.0131,-0.0166,-0.027,-0.0269,-0.0269,-0.0269,-0.0268,-0.0268,-0.0379,-0.0408,-0.0429,-0.0459,-0.0446,-0.0401,-0.0331,-0.0273,-0.0202,-0.0177,-0.0175,-0.0208,-0.0207,-0.0165,-0.0262,-0.0263,-0.0264,-0.0265,-0.0265,-0.0409,-0.0408,-0.0435,-0.0432,-0.0382,-0.0285,-0.0239,-0.0104,-0.0041,0.0012,-0.0087,-0.0093,0.0004,0.0002,0.005,0.0016,0.0016,0.0016,0.0016,-0.0408,-0.0418,-0.0412,-0.0379,-0.0311,-0.0223,-0.0046,0.0008,0.0023,-0.0007,-0.0007,-0.0053,-0.0062,0.0029,0.0027,0.0076,0.0048,0.0047,0.0047,-0.0416,-0.0414,-0.039,-0.036,-0.0272,-0.0137,0.0038,0.0182,0.0143,0.0038,-0.0107,0.0039,-0.0029,-0.0044,0.01,0.0094,0.0175,0,0]}],[{"header":{"parameterUnit":"m.s-1","parameterCategory":2,"la1":30.2992,"la2":30.254,"lo1":-89.0895,"lo2":-89.0443,"dy":0.0025,"dx":0.0025,"nx":19,"ny":19,"refTime":"2026-05-06T09:00:00:Z","depth":"4","parameterNumber":2,"parameterNumberName":"U-component_of_CURRENTS"},"data":[0,0,0,-0.1237,-0.1239,-0.1328,-0.1329,-0.1435,-0.1436,0,0,0,0,0,0,0,0,0,0,0,-0.1211,-0.1212,-0.1237,-0.1239,-0.1328,-0.1329,-0.1435,-0.1436,0,0,0,0,0,0,0,0,0,0,0,-0.1211,-0.1211,-0.1212,-0.1239,-0.1328,-0.1329,-0.1434,-0.137,0,0,0,0,0,0,0,0,0,0,-0.1284,-0.1262,-0.1211,-0.1212,-0.124,-0.1328,-0.1329,-0.1367,-0.1374,-0.1391,0,-0.141,0,-0.1422,-0.1442,-0.1443,0,0,0,-0.1242,-0.1256,-0.1278,-0.1212,-0.124,-0.1328,-0.1289,-0.1371,-0.1379,-0.14,-0.1411,-0.1415,-0.1424,-0.1443,-0.1443,-0.1554,-0.1554,0,0,-0.1237,-0.1229,-0.1272,-0.1283,-0.127,-0.1286,-0.1292,-0.1376,-0.1388,-0.1412,-0.1418,-0.1426,-0.1444,-0.1444,-0.1553,-0.1554,0,0,0,-0.1221,-0.1226,-0.1246,-0.1278,-0.1294,-0.1288,-0.1295,-0.1384,-0.1391,-0.1419,-0.1427,-0.1444,-0.1445,-0.1553,-0.1554,-0.1525,0,0,0,-0.1218,-0.1216,-0.1244,-0.124,-0.1292,-0.1342,-0.1302,-0.1385,-0.1395,-0.1426,-0.1444,-0.1446,-0.1552,-0.1553,-0.1525,-0.1519,0,0,0,-0.1206,-0.1215,-0.1226,-0.124,-0.1276,-0.1341,-0.1352,-0.1388,-0.14,-0.1443,-0.1447,-0.1552,-0.1553,-0.1525,-0.1519,-0.155,0,0,0,-0.1192,-0.1214,-0.1227,-0.1264,-0.1275,-0.1347,-0.1352,-0.1418,-0.146,-0.1445,-0.1552,-0.1554,-0.1524,-0.1519,-0.1549,-0.1261,0,0,0,-0.1207,-0.1215,-0.1239,-0.1252,-0.1307,-0.1334,-0.1394,-0.1451,-0.1479,-0.1523,-0.1526,-0.1525,-0.1519,-0.155,-0.133,0,0,0,0,-0.1236,-0.1249,-0.1273,-0.131,-0.1361,-0.1392,-0.1451,-0.1478,-0.1526,-0.1507,-0.1556,-0.1554,-0.1574,-0.1405,-0.1559,-0.1559,-0.1559,-0.1559,-0.1559,-0.1223,-0.1256,-0.1294,-0.1338,-0.1384,-0.1446,-0.1478,-0.1523,-0.1549,-0.1572,-0.1553,-0.1589,-0.141,-0.1576,-0.1576,-0.1576,-0.1576,-0.1576,-0.1576,-0.1227,-0.1235,-0.1294,-0.1341,-0.1385,-0.1437,-0.1501,-0.1521,-0.1571,-0.1574,-0.1594,-0.1414,-0.1574,-0.1574,-0.1575,-0.1575,-0.1575,-0.1575,-0.1575,-0.119,-0.1193,-0.1247,-0.1305,-0.1357,-0.1418,-0.1425,-0.1488,-0.1558,-0.1567,-0.1417,-0.159,-0.1568,-0.1586,-0.1586,-0.1586,-0.1586,-0.1586,-0.1586,-0.111,-0.1162,-0.1186,-0.1261,-0.1289,-0.1323,-0.1386,-0.138,-0.1459,-0.1372,-0.1573,-0.1593,-0.1593,-0.1572,-0.1588,-0.1587,-0.1587,-0.1587,-0.1587,-0.103,-0.1068,-0.1089,-0.112,-0.1168,-0.1174,-0.1267,-0.1186,-0.1191,-0.115,-0.1275,-0.129,-0.1282,-0.129,-0.1257,-0.1181,-0.1177,-0.1174,0,-0.096,-0.0984,-0.0989,-0.0997,-0.0983,-0.1067,-0.0947,-0.0953,-0.1027,-0.1015,-0.1251,-0.14,-0.1406,-0.1405,-0.1406,-0.1371,0,0,0,-0.0899,-0.0914,-0.088,-0.0907,-0.0885,-0.0845,-0.09,-0.0831,-0.1049,-0.0873,-0.1082,-0.1106,-0.131,-0.1593,-0.1618,-0.1618,-0.1586,0,0]},{"header":{"parameterUnit":"m.s-1","parameterCategory":2,"la1":30.2992,"la2":30.254,"lo1":-89.0895,"lo2":-89.0443,"dy":0.0025,"dx":0.0025,"nx":19,"ny":19,"refTime":"2026-05-06T09:00:00:Z","depth":"4","parameterNumber":3,"parameterNumberName":"V-component_of_CURRENTS"},"data":[0,0,0,-0.0031,-0.0031,0.0001,0.0001,0.0082,0.0083,0,0,0,0,0,0,0,0,0,0,0,-0.0043,-0.0043,-0.0031,-0.0031,0.0001,0.0001,0.0082,0.0083,0,0,0,0,0,0,0,0,0,0,0,-0.0043,-0.0043,-0.0042,-0.003,0.0001,0.0002,0.0082,0.0049,0,0,0,0,0,0,0,0,0,0,0.0014,-0.0011,-0.0043,-0.0042,-0.003,0.0001,0.0002,0.0047,0.0051,0.0077,0,0.0077,0,0.0081,0.0089,0.0089,0,0,0,-0.0025,-0.0015,-0.0,-0.0042,-0.003,0.0001,-0.0011,0.0049,0.0054,0.0083,0.0078,0.0081,0.0082,0.0089,0.009,0.021,0.0211,0,0,-0.0026,-0.0039,-0.0004,0.0002,-0.0027,-0.0013,-0.0011,0.0052,0.0052,0.0079,0.0083,0.0084,0.009,0.009,0.021,0.0211,0,0,0,-0.0035,-0.004,-0.0028,-0.0001,0.0001,-0.0012,-0.0009,0.0049,0.0054,0.0084,0.0085,0.009,0.0091,0.0209,0.021,0.0113,0,0,0,-0.0036,-0.0046,-0.0029,-0.0037,-0.0,0.0018,-0.0014,0.005,0.0057,0.0084,0.009,0.0092,0.0208,0.021,0.0114,0.0003,0,0,0,-0.0043,-0.0047,-0.0044,-0.0037,-0.0026,0.0017,0.0026,0.0052,0.0058,0.0089,0.0092,0.0208,0.0209,0.0115,0.0008,-0.0042,0,0,0,-0.0056,-0.0066,-0.0044,-0.0051,-0.0026,0.0001,0.0026,0.0046,0.007,0.0091,0.0208,0.021,0.0115,0.0011,-0.0039,-0.003,0,0,0,-0.0077,-0.0069,-0.0071,-0.0051,-0.0052,-0.0003,0.0013,0.005,0.011,0.019,0.0193,0.0114,0.0008,-0.0041,0.0069,0,0,0,0,-0.0083,-0.0094,-0.0085,-0.0083,-0.0047,-0.0047,0.0022,0.0063,0.0125,0.0132,0.0175,0.0111,0.0082,0.0102,0.0218,0.0218,0.0217,0.0217,0.0217,-0.0139,-0.0125,-0.0147,-0.0129,-0.0113,-0.006,-0.0052,0.0024,0.0116,0.0146,0.008,0.0031,0.0059,0.0173,0.0173,0.0173,0.0172,0.0172,0.0172,-0.0199,-0.0219,-0.0217,-0.0235,-0.0216,-0.0196,-0.0126,-0.0073,-0.0033,0.0064,0.0043,0.006,0.0164,0.0165,0.0167,0.0167,0.0168,0.0169,0.0169,-0.0244,-0.0256,-0.0272,-0.0316,-0.0349,-0.0304,-0.0339,-0.0269,-0.0165,-0.0194,-0.0131,-0.0048,-0.0097,-0.0171,-0.0172,-0.0173,-0.0173,-0.0174,-0.0174,-0.0282,-0.0302,-0.0355,-0.0402,-0.0439,-0.0475,-0.0465,-0.045,-0.0366,-0.0283,-0.0225,-0.0086,-0.0074,-0.0115,-0.0185,-0.0183,-0.0182,-0.0181,-0.018,-0.0324,-0.0338,-0.0416,-0.0466,-0.0559,-0.0583,-0.0591,-0.0545,-0.054,-0.0493,-0.0309,-0.03,-0.0282,-0.0267,-0.0314,-0.0446,-0.0446,-0.0447,0,-0.0352,-0.0366,-0.0468,-0.0555,-0.0632,-0.0646,-0.0636,-0.0613,-0.0528,-0.0499,-0.0531,-0.0326,-0.0316,-0.0294,-0.0281,-0.0335,0,0,0,-0.0384,-0.0407,-0.0481,-0.0568,-0.0658,-0.0638,-0.0628,-0.0601,-0.0527,-0.053,-0.0453,-0.0451,-0.0323,-0.0216,-0.0168,-0.0154,-0.0218,0,0]}]]